Location: Fletcher
(38.3569°N, 118.8985°W)
Time: 11:49:05
(UTC+00:00)

Daily predictions for brighter satellites

Satellite Brightness Start Highest point End
(mag) Time Altitude Azimuth Time Altitude Azimuth Time Altitude Azimuth
PSLV R/B 3.5 12:01:11 10° N 12:05:34 73° WNW 12:09:53 10° SSW
ARIANE 5 R/B 4.2 12:07:58 10° NNW 12:11:20 18° WNW 12:14:18 11° W
OAO 3 Rocket 3.4 12:07:27 14° W 12:11:40 59° S 12:16:31 10° ESE
Hubble Space Telescope 2.9 12:10:15 10° SSW 12:12:30 14° SSE 12:14:45 10° SE
Cosmos 1844 Rocket 2.6 12:07:56 10° SSW 12:13:30 78° WNW 12:19:06 10° NNE
H-2A R/B (2) 2.9 12:12:19 12° SSW 12:13:37 15° S 12:15:54 10° SE
deb Chang Zheng 4 3.6 12:11:16 10° NNE 12:15:39 89° ESE 12:20:00 10° SSW
Cosmos 2228 3.9 12:12:57 13° SW 12:16:20 31° WNW 12:20:16 10° NNW
Atlas Centaur 2 3.5 12:11:47 13° SW 12:17:57 43° SSE 12:25:44 10° E
SAR-Lupe-4 3.5 12:22:54 10° SSE 12:26:28 86° WSW 12:30:04 10° NNW
NOSS 2-2 (D) 3.0 12:24:22 10° SW 12:27:56 82° WNW 12:31:40 10° NNE
NOSS 2-2 (E) 3.2 12:24:42 10° SW 12:28:13 59° NW 12:31:58 10° NNE
Cosmos 2058 Rocket 3.4 12:25:41 10° SSW 12:30:01 48° W 12:34:20 10° N
USA 267 3.3 12:26:18 10° SE 12:32:49 74° SW 12:39:23 10° NW
Lacrosse 5 rocket 4.2 12:32:56 10° SSE 12:35:25 15° ESE 12:37:56 10° E
IDEFIX/ARIANE 42P 4.3 12:34:00 10° NNW 12:36:58 15° WNW 12:39:56 10° W
Cosmos 1689 Rocket 3.2 12:36:02 10° SSE 12:38:51 48° ENE 12:41:40 10° N
ADEOS 3.6 12:34:48 10° N 12:39:59 66° WNW 12:45:08 10° SSW
